This is the latest recevied weather packets stored in our database for station/object OH6HPS. If no packets are shown the sender has not sent any weather packets the latest 10 day(s).
| Time | Temp. | Humidity | Pressure | Rain* | Wind** | Luminosity | Snow |
|---|---|---|---|---|---|---|---|
| 1788596821 | 16.67° C | 75% | 994.6 hPa | 0 mm | - | 503 W/m² | - |
| 1788596221 | 16.11° C | 78% | 994.7 hPa | 0 mm | - | 480 W/m² | - |
| 1788595621 | 15.56° C | 81% | 994.6 hPa | 0 mm | - | 464 W/m² | - |
| 1788595020 | 15° C | 86% | 994.5 hPa | 0 mm | - | 452 W/m² | - |
| 1788594419 | 14.44° C | 84% | 994.5 hPa | 0 mm | - | 434 W/m² | - |
| 1788593820 | 13.33° C | 90% | 994.4 hPa | 0 mm | - | 417 W/m² | - |
| 1788593219 | 12.22° C | 93% | 994.4 hPa | 0 mm | - | 403 W/m² | - |
| 1788592619 | 11.11° C | 95% | 994.4 hPa | 0 mm | - | 385 W/m² | - |
| 1788592019 | 10.56° C | 97% | 994.3 hPa | 0 mm | - | 369 W/m² | - |
| 1788591419 | 10° C | 97% | 994.2 hPa | 0 mm | - | 352 W/m² | - |
| 1788590818 | 9.44° C | 97% | 994.3 hPa | 0 mm | - | 324 W/m² | - |
| 1788590218 | 9.44° C | 97% | 994.2 hPa | 0 mm | - | 278 W/m² | - |
| 1788589618 | 8.89° C | 97% | 994.1 hPa | 0 mm | - | 292 W/m² | - |
| 1788589018 | 8.33° C | 97% | 994.1 hPa | 0 mm | - | 250 W/m² | - |
| 1788588418 | 7.78° C | 97% | 994.1 hPa | 0 mm | - | 259 W/m² | - |
| 1788587818 | 7.78° C | 97% | 994.1 hPa | 0 mm | - | 174 W/m² | - |
| 1788586617 | 6.67° C | 97% | 994.1 hPa | 0 mm | - | 102 W/m² | - |
| 1788586017 | 6.11° C | 97% | 994 hPa | 0 mm | - | 55 W/m² | - |
| 1788585416 | 5° C | 96% | 994 hPa | 0 mm | - | 62 W/m² | - |
| 1788584816 | 5° C | 96% | 994 hPa | 0 mm | - | 39 W/m² | - |
| 1788565002 | 6.11° C | 94% | 994.1 hPa | 0 mm | - | 0 W/m² | - |
| 1788564401 | 6.11° C | 94% | 994.1 hPa | 0 mm | - | 0 W/m² | - |
| 1788563802 | 6.11° C | 94% | 994.1 hPa | 0 mm | - | 0 W/m² | - |
| 1788561401 | 6.67° C | 94% | 994.4 hPa | 0 mm | - | 0 W/m² | - |
| 1788560198 | 6.67° C | 93% | 994.6 hPa | 0 mm | - | 0 W/m² | - |
* Rain latest hour (hover to see other rain measurements)
** Current wind speed in m/s (hover to see current wind gust speed)